Location: Blackwall
(51.5097°N, 0.0016°W)
Time: 00:42:12
(UTC+00:00)

USA 290 - Pass Details

Date: 15 May 2026
Orbit: 396 x 415 km, 73.6° (Epoch: 30 October)

Event Time Altitude Azimuth Distance (km) Brightness Sun altitude
Exits shadow 21:18:07 19° 151° (SSE) 996 3.5 -11.4°
Maximum altitude 21:19:34 28° 107° (ESE) 767 3.1 -11.6°
Drops below altitude 10° 21:22:19 10° 46° (NE) 1,435 5.0 -11.8°
Sets 21:24:30 0° 34° (NE) 2,295 6.3 -12.0°
